EW8705 Weather Reports


Display with metric or nautical units.
time (UTC)temp
F
wind
direction
speed
MPH
gust
MPH
rain 1hr
in
rain 24hr
in
rain mn
in
humidity
%
barometer
mb
20190122024625 46 153 2.0 6.0 0.00 0.00 0.00 83 1014.7
20190122023115 46 139 1.0 3.0 0.00 0.00 0.00 83 1014.7
20190122021544 47 162 1.0 3.0 0.00 0.00 0.00 82 1014.8
20190122020037 47 148 1.0 3.0 0.00 0.00 0.00 82 1014.7
20190122014541 46 166 1.0 4.0 0.00 0.00 0.00 83 1014.7
20190122013054 46 155 3.0 7.0 0.00 0.00 0.00 82 1015.0
20190122011538 46 156 2.0 3.0 0.00 0.00 0.00 82 1015.1
20190122010036 46 158 3.0 5.0 0.00 0.00 0.00 82 1015.4
20190122004527 46 163 0.0 3.0 0.00 0.00 0.00 83 1015.5
20190122003043 47 158 1.0 2.0 0.00 0.00 0.00 81 1015.6
20190122001524 46 153 1.0 4.0 0.00 0.00 0.00 82 1015.7
20190122000040 46 155 1.0 3.0 0.00 0.00 0.00 82 1015.7
20190121234536 47 165 3.0 4.0 0.00 0.00 0.00 82 1016.0
20190121233028 47 169 1.0 3.0 0.00 0.00 0.00 82 1016.0
20190121231521 47 146 2.0 4.0 0.00 0.00 0.00 82 1016.1
20190121230016 49 144 1.0 4.0 0.00 0.00 0.00 78 1016.1
20190121224534 49 153 3.0 8.0 0.00 0.00 0.00 76 1016.1
20190121223009 47 176 4.0 7.0 0.00 0.00 0.00 80 1016.2
20190121221629 48 144 2.0 4.0 0.00 0.00 0.00 80 1016.3
20190121214740 48 138 1.0 3.0 0.00 0.00 0.00 80 1016.4
20190121213120 47 141 2.0 4.0 0.00 0.00 0.00 82 1016.5
20190121211659 46 165 2.0 3.0 0.00 0.00 0.00 82 1016.6
20190121210212 46 158 1.0 3.0 0.00 0.00 0.00 82 1016.6
20190121204633 46 120 2.0 5.0 0.00 0.00 0.00 82 1016.5
20190121203138 46 156 1.0 4.0 0.00 0.00 0.00 82 1016.5
20190121201721 46 145 1.0 4.0 0.00 0.00 0.00 81 1016.3
20190121200125 46 139 1.0 3.0 0.00 0.00 0.00 81 1016.5
20190121193132 47 154 2.0 4.0 0.00 0.00 0.00 80 1016.6
20190121191641 48 146 2.0 4.0 0.00 0.00 0.00 79 1016.8
20190121190131 49 141 2.0 6.0 0.00 0.00 0.00 76 1017.0
20190121184648 49 176 4.0 7.0 0.00 0.00 0.00 77 1016.9
20190121183139 49 156 4.0 6.0 0.00 0.00 0.00 79 1017.0
20190121181608 49 162 3.0 5.0 0.00 0.00 0.00 78 1017.1
20190121180117 50 150 3.0 6.0 0.00 0.00 0.00 77 1017.1
20190121174555 50 149 3.0 7.0 0.00 0.00 0.00 77 1017.0
20190121171651 50 140 3.0 4.0 0.00 0.00 0.00 80 1017.1
20190121170140 50 155 2.0 4.0 0.00 0.00 0.00 78 1017.0
20190121154629 52 150 2.0 4.0 0.00 0.00 0.00 75 1016.9
20190121153114 53 155 2.0 3.0 0.00 0.00 0.00 74 1016.9
20190121151600 56 171 1.0 2.0 0.00 0.00 0.00 63 1016.8
20190121150100 57 221 1.0 2.0 0.00 0.00 0.00 60 1016.7
20190121144554 58 221 1.0 2.0 0.00 0.00 0.00 59 1016.6
20190121143110 58 157 0.0 1.0 0.00 0.00 0.00 59 1016.6
20190121141559 59 155 0.0 1.0 0.00 0.00 0.00 56 1016.7
20190121140103 60 300 0.0 2.0 0.00 0.00 0.00 53 1016.8
20190121134530 60 323 1.0 4.0 0.00 0.00 0.00 55 1016.8
20190121133046 61 324 1.0 4.0 0.00 0.00 0.00 55 1016.6
20190121131604 61 316 1.0 3.0 0.00 0.00 0.00 56 1016.4
20190121130056 61 317 2.0 4.0 0.00 0.00 0.00 54 1016.5
20190121124602 61 20 2.0 4.0 0.00 0.00 0.00 54 1016.5
20190121123054 61 335 3.0 6.0 0.00 0.00 0.00 56 1016.5
20190121121611 61 321 4.0 9.0 0.00 0.00 0.00 60 1016.7
20190121114608 60 309 2.0 7.0 0.00 0.00 0.00 62 1016.7
20190121113105 61 337 5.0 9.0 0.00 0.00 0.00 60 1016.8
20190121111540 61 326 4.0 12.0 0.00 0.00 0.00 60 1016.9
20190121110035 62 333 3.0 8.0 0.00 0.00 0.00 57 1017.1
20190121104530 61 328 2.0 5.0 0.00 0.00 0.00 60 1017.2
20190121103021 61 30 2.0 5.0 0.00 0.00 0.00 59 1017.3
20190121101515 60 333 2.0 6.0 0.00 0.00 0.00 61 1017.4
20190121100015 60 311 4.0 7.0 0.00 0.00 0.00 59 1017.5
20190121093019 61 353 2.0 4.0 0.00 0.00 0.00 54 1017.5
20190121091515 60 323 1.0 4.0 0.00 0.00 0.00 53 1017.7
20190121090028 60 20 2.0 4.0 0.00 0.00 0.00 54 1017.8
20190121084512 59 2 1.0 4.0 0.00 0.00 0.00 54 1018.0
20190121083012 59 358 2.0 4.0 0.00 0.00 0.00 56 1018.2
20190121081506 60 334 0.0 4.0 0.00 0.00 0.00 51 1018.3
20190121080002 60 108 0.0 2.0 0.00 0.00 0.00 43 1018.3
20190121073206 58 139 0.0 1.0 0.00 0.00 0.00 55 1018.3
20190121071747 58 138 1.0 3.0 0.00 0.00 0.00 56 1018.2
20190121064658 56 142 1.0 4.0 0.00 0.00 0.00 59 1018.2
20190121063206 53 159 0.0 3.0 0.00 0.00 0.00 60 1018.2
20190121061636 50 148 1.0 3.0 0.00 0.00 0.00 64 1018.1
20190121060134 48 160 3.0 5.0 0.00 0.00 0.00 67 1017.9
20190121054623 46 153 2.0 4.0 0.00 0.00 0.00 70 1017.9
20190121053051 44 155 4.0 5.0 0.00 0.00 0.00 71 1017.8
20190121051612 44 145 3.0 5.0 0.00 0.00 0.00 70 1017.7
20190121050106 44 143 2.0 5.0 0.00 0.00 0.00 70 1017.5
20190121044548 44 138 2.0 4.0 0.00 0.00 0.00 71 1017.3
20190121043142 44 144 3.0 5.0 0.00 0.00 0.00 71 1017.3
20190121041609 43 150 3.0 5.0 0.00 0.00 0.00 73 1017.2
20190121040032 44 153 2.0 4.0 0.00 0.00 0.00 73 1017.1
20190121034602 45 152 2.0 3.0 0.00 0.00 0.00 71 1017.0
20190121033135 45 147 2.0 4.0 0.00 0.00 0.00 71 1016.9
20190121031609 44 153 2.0 3.0 0.00 0.00 0.00 74 1016.7
20190121030109 44 172 1.0 3.0 0.00 0.00 0.00 74 1016.7